Location: ????
(31.7929°N, 35.1685°E)
Time: 06:17:28
(UTC+00:00)

Daily predictions for brighter satellites

Satellite Brightness Start Highest point End
(mag) Time Altitude Azimuth Time Altitude Azimuth Time Altitude Azimuth
Cosmos 2218 Rocket 4.3 16:36:50 10° S 16:42:59 75° W 16:49:08 10° N
Skynet4D Del rocket 3.9 16:38:17 10° WSW 16:43:31 51° S 16:48:43 10° ESE
COSMOS 2406 4.5 16:42:18 10° SW 16:47:49 48° WNW 16:53:21 10° N
Sich 1 3.6 16:45:19 10° SSE 16:49:23 37° E 16:53:28 10° NNE
H-2A R/B 2.0 16:49:43 10° SSE 16:54:49 69° ENE 16:59:48 10° N
Yuri Rocket 3.8 16:50:44 10° WSW 16:55:26 39° S 16:59:24 10° E
CZ-4 R/B 3.5 16:55:56 10° SSW 16:59:21 29° W 17:02:50 10° NW
Cosmos 676 Rocket 4.3 16:55:31 10° S 17:00:34 46° ESE 17:05:39 10° NNE
ATLAS 5 CENTAUR R/B 2.7 16:54:35 10° NNW 17:00:47 82° WSW 17:07:47 10° SSE
Cosmos 2228 Rocket 3.0 17:00:05 10° N 17:04:30 81° E 17:08:52 10° S
HJ-1C 4.0 17:01:29 10° S 17:04:46 59° W 17:08:04 10° NNW
CZ-2C R/B 3.1 17:01:08 10° S 17:05:56 72° WSW 17:10:40 10° NNW
USA 186 1.9 17:04:26 14° SE 17:05:57 28° ENE 17:07:56 10° NNE
Cosmos 1656 3.7 17:04:41 10° NNW 17:10:14 84° WSW 17:15:49 10° SSE
Cosmos 389 Rocket 2.4 17:08:18 10° N 17:11:45 64° E 17:15:13 10° SSE
Meteor 1-4 Rocket 4.2 17:10:31 10° NE 17:12:41 16° ENE 17:13:25 15° E
IRIDIUM 104 4.3 17:08:28 10° S 17:13:37 66° E 17:18:47 10° N
USA 238 DEB 3.6 17:08:09 10° SSW 17:14:41 90° WNW 17:21:28 10° NNE
USA 238 3.6 17:08:15 10° SSW 17:14:47 90° ESE 17:21:34 10° NNE
Cosmos 1727 Rocket 4.1 17:09:38 10° N 17:16:01 89° WSW 17:22:20 10° S
Cosmos 1980 Rocket 3.2 17:11:23 10° N 17:16:11 28° ENE 17:19:31 16° ESE
Cosmos 1833 Rocket 4.3 17:12:07 10° SW 17:17:17 38° WNW 17:22:31 10° N
Genesis I 4.5 17:14:50 10° N 17:18:04 25° NE 17:19:53 18° E
CENTAUR R/B 2.4 17:13:23 10° S 17:18:42 53° ESE 17:24:51 10° NE
SL-8 R/B 4.4 17:15:16 10° WNW 17:19:55 49° SW 17:24:07 12° SSE
Lacrosse 5 4.2 17:19:02 10° NNE 17:20:10 11° NNE 17:21:19 10° NE
Resurs 01 Rocket 3.4 17:19:47 14° E 17:20:58 15° ENE 17:23:34 10° NNE
IRIDIUM 114 4.3 17:17:33 10° S 17:22:45 83° E 17:27:58 10° N
Intercosmos 25 3.5 17:19:58 10° NNE 17:23:01 36° E 17:24:39 21° SE
CZ-2C R/B 4.1 17:20:13 10° NNE 17:24:26 38° E 17:28:34 10° SSE
Meteor 2-6 Rocket 4.5 17:19:48 10° NNW 17:25:26 75° W 17:31:13 10° S
Aureole 1 Rocket 4.4 17:21:39 10° SSW 17:28:16 87° WNW 17:36:29 10° NNE
Cosmos 1954 Rocket 4.0 17:23:26 10° SSW 17:28:44 88° ESE 17:34:05 10° NNE
Cosmos 1697 Rocket 2.6 17:23:07 10° NNW 17:28:45 73° ENE 17:33:28 15° SSE
Cosmos 1821 Rocket 4.0 17:22:42 10° S 17:28:49 84° W 17:35:05 10° N
Cosmos 1666 Rocket 3.4 17:24:55 10° S 17:29:12 73° E 17:33:31 10° N
Cosmos 220 Rocket 4.4 17:26:59 10° NNW 17:31:10 62° WSW 17:35:22 10° S
VEP-3 4.0 17:26:08 10° WSW 17:31:12 34° S 17:37:54 17° SE
IRIDIUM 103 4.4 17:26:41 10° S 17:31:52 79° W 17:37:07 10° N
Ariane Rocket 2.9 17:28:46 10° SSE 17:33:49 89° ENE 17:38:53 10° NNW
DMSP B5D2-2 4.1 17:32:36 10° N 17:37:52 85° WNW 17:43:07 10° SSW
Cosmos 405 Rocket 3.9 17:39:55 24° ENE 17:39:55 24° ENE 17:42:20 10° NE
FREGAT/IRIS 2.7 17:41:01 28° S 17:42:11 59° W 17:44:46 10° NNW
SJ-6B 3.0 17:43:15 16° S 17:46:28 75° W 17:50:27 10° NNW
Cosmos 1812 3.7 17:45:46 10° NNW 17:49:28 47° W 17:53:09 10° SSW
Resurs 1-3 3.8 17:48:15 34° SE 17:49:47 52° ENE 17:54:02 10° N
Shenzhou-11 Module 3.0 17:51:20 10° WNW 17:52:58 31° WSW 17:52:58 31° WSW
Cosmos 1535 Rocket 4.4 17:48:28 10° S 17:54:36 87° E 18:00:43 10° N
Cosmos 2084 Rocket 3.9 17:51:03 10° SW 17:55:08 61° WNW 17:59:19 10° NNE
Cosmos 1633 Rocket 3.5 17:51:44 10° SSW 17:56:06 64° W 18:00:29 10° N
OBJECT-B 0.6 17:56:29 70° ESE 17:56:39 73° ENE 17:59:56 10° N
Aureole 2 4.4 17:55:25 23° SSW 17:57:25 88° WNW 18:01:15 10° NNE
Centaur D AC-25 4.3 17:52:57 10° SW 17:58:09 43° SE 18:20:41 10° E
Cosmos 1184 Rocket 3.6 17:58:50 15° SSW 18:01:20 51° W 18:04:33 10° N
Cosmos 2123 Rocket 3.9 17:56:04 10° N 18:02:17 70° E 18:05:41 29° SSE
H-2A R/B 4.1 17:58:46 10° NNE 18:01:51 37° ENE 18:01:51 37° ENE
Cosmos 1605 Rocket 3.9 17:58:20 17° S 18:03:03 66° E 18:09:05 10° NNE
Cosmos 921 Rocket 3.4 18:04:37 10° N 18:08:15 42° ENE 18:08:15 42° ENE
Meteor 1-27 Rocket 4.2 18:03:56 10° NNW 18:09:47 62° W 18:14:39 15° S
USA 267 3.1 18:07:28 10° NE 18:14:02 82° SE 18:20:35 10° SW
NOSS 3-2 (C) 4.3 18:10:31 10° SW 18:15:48 46° NW 18:21:42 10° NNE
CZ-2C R/B 4.4 18:12:06 10° N 18:16:40 32° WNW 18:21:16 10° SW
Cosmos 192 4.2 18:16:56 10° NNW 18:21:52 85° WSW 18:22:41 63° S
SL-16 R/B 3.2 18:19:52 10° N 18:24:35 29° ENE 18:24:35 29° ENE
Cosmos 1470 Rocket 4.2 18:23:35 26° SSW 18:25:52 53° W 18:30:10 10° N
Meteor 1-14 Rocket 4.2 18:30:51 59° SSE 18:31:57 76° E 18:37:53 10° NNE
Cosmos 2242 Rocket 4.5 18:28:41 10° N 18:31:38 38° NNE 18:31:38 38° NNE
Skynet4D Del rocket 4.5 18:30:49 10° WSW 18:34:58 33° SSW 18:34:58 33° SSW
ATLAS 3B R/B 2.4 18:34:06 10° SSW 18:40:43 82° ESE 18:47:20 10° NNE
SPOT 1/Viking Rocket 4.3 18:42:54 40° NE 18:42:54 40° NE 18:46:47 10° N
Cosmos 2322 Rocket 3.2 18:37:04 10° N 18:41:25 32° NE 18:41:25 32° NE
BREEZE-M TANK 3.6 18:27:29 10° SW 18:43:51 81° SE 18:45:06 56° ENE
Terra 4.1 18:49:02 13° NE 18:49:02 13° NE 18:49:57 10° NNE
Cosmos 2360 Rocket 4.0 18:47:07 10° NNE 18:50:02 19° NE 18:50:02 19° NE
Meteor 1-18 Rocket 4.2 18:46:16 10° N 18:51:22 75° NNE 18:51:22 75° NNE
Centaur D-1AR AC-40 3.7 18:43:11 10° WSW 18:54:39 34° SSW 18:54:39 34° SSW
Resurs 01 Rocket 2.9 18:57:22 36° W 18:57:22 36° W 19:01:12 10° NNW
Cosmos 1980 Rocket 3.5 18:55:10 10° NW 19:00:06 32° WSW 19:01:19 29° SW
X-37B 4.1 18:58:04 10° NNW 18:58:07 10° NNW 18:58:07 10° NNW
Cosmos 468 Rocket 4.4 18:55:11 10° NNW 18:59:34 61° NNW 18:59:34 61° NNW
Cosmos 1447 Rocket 4.4 18:54:15 10° N 19:00:35 83° W 19:00:45 82° SW
Lacrosse 5 2.8 18:59:02 10° NNW 19:02:39 43° N 19:02:39 43° N
Spot 2 Rocket 4.3 19:11:06 50° NNW 19:11:06 50° NNW 19:14:53 10° NNW
Cosmos 2333 Rocket 4.4 19:31:31 10° NNE 19:33:20 16° NNE 19:33:20 16° NNE
Cosmos 2219 Rocket 4.4 20:00:50 10° N 20:02:41 19° NNE 20:02:41 19° NNE
SL-16 R/B 4.2 20:03:53 10° NW 20:06:28 22° WNW 20:06:28 22° WNW
Cosmos 2322 Rocket 4.5 20:21:23 10° NW 20:23:15 18° WNW 20:23:15 18° WNW
USA 234 4.4 20:29:00 36° N 20:29:00 36° N 20:33:06 10° NNW
Cosmos 2360 Rocket 4.5 20:30:06 10° NW 20:31:48 19° NW 20:31:48 19° NW
CZ-2D R/B 4.3 23:03:08 10° NNE 23:05:05 23° NNE 23:05:05 23° NNE
Resurs 1-4 Rocket 4.1 23:33:42 10° N 23:35:32 22° N 23:35:32 22° N
Atlas Centaur 2 3.6 23:51:55 35° E 23:51:55 35° E 23:55:58 10° E
SL-16 R/B 3.8 23:55:42 30° NNW 23:55:42 30° NNW 23:58:44 10° NNW
